Wind_Speed
4 4 4 4 4 4 4 4 4 5 5 5 5 4 4 4 5 4 4 4 4 4 5 5 5 5 6 6 7 7 7 7 8 8 7 7 7 7 8 8 9 9 9
5 5 5 5 5 4 5 5 4 5 6 6 6 6 6 6 6 5 5 5 5 5 6 6 6 6 7 7 8 8 8 8 9 9 9 9 8 8 9 10 10 10 10
6 6 5 5 5 5 6 6 6 6 6 6 6 7 7 7 7 6 7 7 7 7 7 7 7 8 8 8 8 9 9 9 9 9 10 9 9 10 10 10 11 11 11
7 6 6 5 5 6 6 7 7 7 7 7 7 8 8 8 7 7 7 8 8 8 8 9 9 9 9 9 9 10 10 10 10 10 10 10 10 10 11 11 11 12 13
8 7 6 6 6 7 7 7 8 9 9 9 9 8 8 8 8 8 8 9 9 10 9 9 10 10 10 10 10 10 11 10 11 11 11 11 11 11 11 12 12 13 14
8 8 8 7 8 8 8 9 9 10 10 10 10 10 10 10 10 10 10 11 11 11 10 10 11 11 11 11 11 11 11 12 12 12 13 13 13 12 12 12 13 13 14
9 9 8 8 8 9 9 10 11 11 11 11 11 11 11 10 10 11 11 11 11 12 12 12 12 12 12 13 13 13 13 13 13 13 14 14 14 14 14 13 13 13 14
11 11 10 11 11 11 11 11 12 12 12 12 12 12 12 12 12 13 13 13 13 13 14 14 13 13 13 14 14 14 14 14 14 14 14 14 14 14 14 14 14 14 15
12 12 12 12 12 12 12 12 12 12 13 13 13 13 13 13 13 14 14 14 15 15 15 15 15 14 14 14 15 15 15 15 15 15 15 15 14 15 15 15 15 15 15
13 13 13 12 13 13 14 14 14 13 13 13 14 15 15 14 14 15 16 16 16 17 16 17 16 16 15 15 15 15 15 15 15 16 16 16 16 16 16 16 16 16 17
14 13 13 13 14 14 14 14 14 14 14 15 15 15 16 16 16 17 17 17 17 18 17 17 17 17 17 17 17 16 16 16 17 17 17 17 17 17 17 17 17 17 18
15 15 15 14 14 14 14 15 15 15 15 16 16 17 18 18 18 19 18 18 18 19 18 18 18 18 18 18 18 18 18 18 18 19 18 17 18 18 18 18 19 19 19
16 16 16 16 15 15 15 16 17 17 17 17 18 18 18 19 19 19 20 20 19 19 20 20 19 19 19 19 19 19 20 19 20 20 19 19 19 19 19 20 20 20 21
17 17 17 17 16 17 17 17 17 18 18 18 19 19 20 20 21 21 21 21 20 20 20 20 20 20 20 20 21 21 21 21 20 21 21 21 21 21 21 21 22 21 22
17 18 18 17 17 17 17 17 17 18 18 19 20 20 22 22 22 22 21 21 21 21 21 22 21 20 21 21 21 22 22 22 22 22 22 21 22 22 22 23 23 23 23
18 18 18 17 17 16 16 16 17 18 18 20 20 20 21 22 21 21 21 21 21 21 21 21 21 22 22 21 21 22 22 23 22 23 23 23 23 23 23 23 23 24 24
18 18 17 17 16 16 16 17 18 18 19 19 20 20 21 21 22 22 22 22 22 21 21 22 22 23 23 23 22 23 23 24 23 23 24 25 24 24 24 25 24 25 24
18 18 18 18 17 17 17 18 18 19 20 20 21 21 22 22 22 22 22 22 23 22 22 22 23 23 23 23 23 23 23 24 24 24 24 25 26 26 26 26 26 26 26
18 18 18 18 19 18 18 18 19 20 21 21 21 21 22 22 22 22 22 23 23 23 23 23 23 23 23 23 23 23 23 24 25 25 25 26 26 26 26 26 27 27 27
18 19 18 18 19 19 19 18 19 20 21 20 21 22 21 21 22 22 22 23 23 23 23 23 23 23 23 23 23 24 23 24 24 25 25 25 26 26 26 27 27 27 27
18 19 19 19 20 20 19 19 19 20 20 20 21 21 21 21 21 22 22 22 22 23 22 22 22 22 22 22 23 24 24 24 24 25 26 26 26 26 26 27 27 27 27
19 19 20 20 19 19 20 19 19 19 19 19 21 20 20 21 21 21 22 21 21 22 22 21 21 21 21 22 23 24 24 24 25 26 26 26 27 27 27 27 27 28 29
19 19 19 19 19 19 19 19 19 18 18 18 18 18 20 20 20 20 20 21 21 22 22 21 21 21 22 22 23 24 24 23 23 25 26 26 27 27 28 29 29 29 30
17 18 18 18 17 17 17 18 18 18 18 18 18 18 18 19 20 20 20 20 21 22 22 22 21 22 22 22 22 22 23 24 24 25 26 27 27 28 28 29 30 30 31
16 16 16 16 15 15 15 16 17 17 17 17 17 17 18 19 20 20 21 21 21 21 20 20 21 22 22 22 22 23 24 25 26 26 26 27 28 29 29 29 30 31 32
14 14 14 14 14 14 15 15 15 16 16 17 17 18 19 20 20 20 20 20 19 19 18 18 19 20 21 22 23 24 24 24 25 26 26 28 29 29 30 31 32 33 33
Wind_Direction
253 248 237 232 238 244 249 254 249 250 255 262 267 267 274 282 285 286 293 303 308 312 312 307 302 299 298 298 298 296 295 294 291 289 289 285 281 276 270 266 259 255 253
257 253 242 239 239 245 252 256 253 257 262 265 270 271 274 278 279 281 288 297 300 303 302 300 294 293 293 293 293 291 289 289 287 286 285 281 277 272 269 263 258 255 253
271 257 245 248 247 255 263 268 266 266 270 271 273 274 273 274 278 281 286 291 294 296 295 293 291 288 288 289 289 287 287 287 285 283 281 279 274 268 265 262 259 256 254
264 255 245 253 260 265 275 279 277 276 278 276 276 278 276 276 278 281 285 288 290 291 290 289 288 285 286 286 286 286 285 285 284 283 280 278 275 270 265 263 261 258 256
257 257 255 260 269 270 276 286 283 281 282 281 280 280 281 280 281 282 285 287 287 287 287 286 285 284 284 284 283 283 283 284 283 281 278 276 274 270 267 264 263 261 259
256 259 258 263 271 274 276 282 284 282 280 279 279 281 282 282 283 283 286 286 285 284 284 284 284 282 281 280 279 279 281 282 281 280 279 276 273 270 266 263 261 260 259
255 260 261 264 268 274 280 283 283 281 276 275 278 278 280 283 284 284 284 284 285 286 286 285 285 283 281 280 280 278 279 278 278 278 276 275 274 271 265 262 259 258 256
260 264 265 268 269 270 274 277 281 280 275 274 277 279 280 283 283 283 281 282 284 284 285 285 285 282 282 281 280 279 279 277 277 275 275 274 273 270 266 262 259 258 256
265 265 265 267 269 270 272 273 275 275 276 274 274 277 278 282 285 284 283 283 282 283 284 285 284 282 281 280 279 278 278 277 276 277 275 272 271 270 266 262 260 259 257
268 270 269 267 270 274 273 270 270 272 273 275 276 276 275 278 282 284 284 283 282 283 283 283 284 282 280 281 280 278 278 279 281 279 278 274 273 270 268 262 259 258 257
267 269 271 268 269 274 273 270 270 272 273 273 275 276 277 279 280 281 283 282 282 283 283 284 282 283 281 281 279 276 277 278 280 280 278 276 274 273 270 264 261 259 257
266 268 269 269 269 270 271 271 274 272 272 272 274 276 278 279 280 279 279 282 283 283 282 282 281 280 280 279 277 274 275 276 277 277 276 275 273 273 271 267 264 259 257
265 268 268 266 269 269 271 274 276 273 272 273 272 274 275 276 277 278 279 281 282 283 282 282 281 279 280 279 277 275 274 276 276 275 275 274 272 272 272 270 267 262 258
264 265 267 267 268 269 270 273 275 274 273 272 272 271 272 275 277 278 277 278 280 283 284 284 281 280 280 279 276 274 274 274 274 275 275 276 275 274 272 271 267 262 259
263 265 266 266 267 269 269 272 273 272 273 274 276 277 277 279 279 279 279 280 283 285 286 285 283 282 281 280 277 272 273 274 273 274 275 275 275 276 273 270 267 263 261
265 264 263 262 265 268 270 272 273 272 276 278 278 280 280 282 283 283 282 283 284 285 286 286 283 281 281 282 282 276 272 272 274 275 274 274 274 274 273 271 269 265 263
264 264 261 262 266 269 270 270 273 273 277 278 279 282 281 281 280 281 283 283 282 283 285 284 283 282 282 282 281 279 275 272 274 274 274 274 273 272 271 270 270 267 265
265 264 264 265 267 270 270 270 272 274 275 276 279 282 283 281 281 280 282 283 281 282 284 284 283 282 282 281 281 281 278 272 272 274 274 275 275 274 271 270 268 267 265
266 266 266 267 266 268 269 270 272 273 275 276 277 281 283 284 282 279 280 283 283 283 284 283 283 281 282 283 281 282 280 275 274 275 275 275 276 276 274 271 270 267 265
266 265 267 267 269 268 269 270 274 274 274 274 276 279 282 284 284 283 281 281 282 284 284 283 283 283 285 285 284 282 279 278 278 277 277 276 276 275 273 271 270 268 267
265 265 267 268 271 269 269 270 274 275 275 275 275 279 281 284 285 286 283 283 282 284 283 283 284 283 286 286 285 284 282 280 278 278 278 278 278 276 276 273 270 268 268
265 266 267 267 268 269 270 272 274 276 277 281 281 282 284 285 286 289 288 285 284 285 284 283 284 285 286 285 286 286 284 282 279 279 278 279 279 278 277 276 273 272 269
265 267 269 267 267 269 270 273 275 277 279 284 286 283 284 284 287 291 291 288 286 286 285 284 284 285 286 286 287 287 287 286 282 281 280 279 279 279 278 277 277 276 274
264 265 266 267 271 271 272 275 276 278 282 286 286 285 284 285 288 291 291 291 288 286 286 284 282 283 284 285 286 287 288 287 284 284 283 281 281 280 280 279 278 277 276
263 263 262 265 269 275 277 278 280 282 284 287 287 287 286 288 290 291 292 291 290 288 287 287 285 285 286 285 285 286 286 286 286 285 285 284 283 281 279 279 278 277 276
260 261 264 266 271 275 278 282 285 286 287 287 287 289 289 289 290 291 290 290 291 291 289 288 289 287 286 286 286 287 289 288 287 286 286 285 284 281 280 279 278 277 275
Height
5895 5895 5895 5895 5895 5895 5895 5895 5895 5895 5895 5894 5893 5893 5893 5893 5892 5892 5891 5891 5890 5890 5890 5890 5889 5889 5889 5888 5888 5887 5887 5887 5886 5886 5886 5885 5885 5885 5885 5885 5885 5885 5886
5893 5893 5893 5893 5894 5893 5893 5894 5893 5894 5893 5893 5892 5892 5891 5891 5891 5890 5890 5889 5889 5889 5888 5888 5887 5887 5887 5886 5886 5886 5885 5885 5885 5884 5884 5884 5883 5883 5883 5883 5883 5883 5884
5892 5892 5892 5892 5892 5892 5892 5892 5892 5892 5892 5891 5891 5890 5890 5889 5889 5888 5888 5888 5887 5887 5886 5886 5885 5885 5885 5884 5884 5883 5883 5883 5883 5882 5882 5882 5881 5881 5881 5881 5881 5881 5881
5890 5890 5890 5890 5890 5890 5890 5890 5890 5890 5890 5890 5889 5889 5888 5887 5887 5887 5886 5886 5885 5885 5884 5884 5883 5883 5882 5882 5882 5881 5881 5880 5880 5880 5879 5879 5879 5879 5879 5879 5879 5879 5879
5888 5888 5888 5888 5888 5888 5888 5888 5888 5888 5888 5887 5887 5886 5886 5886 5885 5885 5884 5884 5883 5882 5882 5881 5881 5880 5880 5879 5879 5879 5878 5878 5877 5877 5877 5876 5877 5876 5876 5877 5876 5876 5876
5886 5886 5886 5887 5887 5886 5886 5886 5886 5886 5885 5885 5884 5884 5884 5883 5883 5882 5882 5881 5881 5880 5879 5879 5878 5878 5877 5877 5876 5876 5876 5875 5875 5874 5874 5874 5874 5874 5874 5874 5874 5874 5874
5884 5884 5884 5884 5884 5884 5884 5884 5884 5883 5883 5882 5882 5881 5881 5881 5880 5880 5879 5879 5878 5878 5877 5876 5876 5875 5874 5874 5873 5873 5873 5872 5872 5871 5871 5871 5871 5871 5871 5871 5871 5871 5871
5882 5882 5882 5882 5882 5882 5882 5881 5881 5880 5880 5879 5879 5879 5878 5878 5877 5877 5876 5876 5876 5875 5874 5873 5873 5872 5871 5871 5870 5870 5870 5869 5869 5868 5868 5868 5868 5868 5868 5868 5868 5868 5868
5880 5879 5879 5879 5879 5879 5879 5878 5878 5877 5877 5876 5876 5876 5876 5875 5875 5874 5873 5873 5872 5872 5871 5870 5869 5869 5868 5868 5867 5867 5866 5866 5865 5865 5865 5865 5864 5864 5864 5864 5864 5865 5865
5877 5877 5876 5876 5876 5876 5875 5875 5875 5874 5874 5873 5873 5873 5872 5872 5871 5871 5870 5869 5869 5868 5867 5866 5866 5865 5864 5864 5864 5863 5863 5862 5862 5861 5861 5861 5861 5861 5861 5861 5861 5861 5861
5874 5873 5873 5873 5873 5873 5872 5871 5871 5871 5871 5870 5870 5870 5869 5869 5868 5867 5866 5866 5865 5864 5863 5862 5862 5861 5860 5860 5860 5859 5859 5859 5858 5857 5857 5857 5857 5857 5857 5856 5857 5857 5857
5870 5870 5870 5870 5870 5869 5868 5868 5868 5868 5867 5867 5867 5866 5865 5865 5864 5863 5862 5861 5860 5859 5859 5858 5857 5856 5856 5856 5855 5855 5855 5854 5853 5853 5853 5853 5853 5852 5852 5852 5852 5853 5853
5867 5867 5867 5867 5866 5866 5865 5865 5865 5864 5864 5863 5863 5862 5861 5861 5860 5859 5858 5857 5856 5855 5854 5854 5853 5852 5851 5851 5850 5850 5850 5849 5849 5849 5848 5848 5848 5848 5848 5847 5847 5847 5848
5863 5863 5863 5863 5863 5863 5862 5861 5861 5861 5860 5859 5859 5858 5858 5857 5855 5854 5853 5852 5851 5850 5850 5849 5848 5847 5846 5845 5845 5845 5844 5844 5844 5844 5844 5844 5843 5843 5843 5842 5842 5842 5843
5859 5859 5859 5859 5859 5859 5858 5857 5857 5856 5856 5855 5855 5854 5854 5852 5851 5850 5849 5848 5847 5846 5845 5844 5843 5842 5841 5840 5840 5840 5839 5839 5839 5838 5838 5838 5838 5838 5837 5837 5837 5837 5837
5855 5855 5854 5855 5854 5854 5854 5853 5852 5852 5851 5851 5850 5850 5849 5847 5846 5845 5845 5843 5842 5841 5840 5839 5838 5837 5836 5835 5834 5834 5833 5833 5833 5833 5832 5832 5832 5832 5832 5831 5831 5831 5831
5850 5850 5850 5850 5850 5850 5849 5849 5848 5848 5848 5846 5846 5845 5844 5842 5841 5840 5840 5839 5837 5836 5835 5834 5833 5832 5831 5830 5829 5828 5828 5828 5827 5827 5827 5826 5826 5826 5826 5825 5825 5825 5825
5846 5846 5846 5846 5846 5845 5845 5845 5844 5844 5843 5842 5841 5840 5839 5837 5836 5835 5835 5834 5833 5831 5830 5829 5827 5826 5825 5824 5823 5823 5822 5822 5822 5821 5821 5820 5820 5820 5819 5819 5819 5819 5819
5842 5842 5842 5842 5842 5841 5841 5840 5840 5839 5838 5837 5837 5835 5834 5833 5831 5830 5830 5829 5827 5826 5825 5823 5822 5821 5820 5818 5818 5817 5816 5816 5815 5815 5815 5814 5814 5813 5813 5812 5812 5812 5812
5837 5837 5838 5838 5837 5837 5837 5836 5836 5835 5834 5833 5832 5831 5829 5828 5827 5825 5824 5823 5822 5821 5819 5818 5816 5815 5814 5813 5812 5811 5810 5810 5809 5809 5808 5808 5807 5807 5806 5805 5805 5805 5805
5833 5833 5833 5833 5833 5833 5832 5832 5831 5830 5829 5828 5827 5826 5824 5823 5822 5821 5819 5818 5817 5815 5814 5813 5811 5809 5809 5807 5806 5805 5804 5804 5803 5802 5802 5801 5801 5800 5799 5798 5798 5798 5797
5828 5829 5828 5828 5828 5827 5827 5827 5826 5825 5824 5823 5822 5820 5819 5819 5817 5816 5814 5813 5811 5810 5809 5807 5806 5804 5803 5802 5801 5799 5798 5798 5797 5796 5795 5795 5794 5793 5792 5791 5790 5790 5789
5823 5824 5823 5823 5823 5822 5822 5822 5821 5820 5820 5819 5817 5816 5815 5814 5812 5811 5809 5807 5806 5805 5803 5802 5801 5800 5798 5797 5795 5793 5792 5791 5791 5790 5788 5787 5786 5785 5784 5783 5782 5781 5780
5819 5819 5819 5819 5818 5818 5818 5817 5817 5816 5815 5814 5813 5811 5810 5809 5807 5806 5804 5802 5801 5799 5797 5796 5795 5794 5792 5791 5789 5787 5786 5785 5784 5783 5781 5780 5778 5777 5776 5775 5774 5772 5771
5814 5815 5815 5815 5814 5814 5814 5813 5812 5812 5810 5809 5808 5807 5805 5804 5802 5800 5798 5796 5795 5793 5791 5790 5789 5787 5786 5784 5783 5781 5780 5778 5777 5775 5774 5772 5770 5769 5767 5766 5764 5763 5761
5811 5811 5811 5811 5811 5810 5810 5809 5808 5807 5806 5805 5803 5802 5800 5799 5797 5795 5793 5791 5789 5787 5786 5785 5783 5781 5780 5778 5777 5775 5773 5772 5770 5768 5766 5764 5762 5760 5758 5756 5755 5753 5751